sat.trackr.live / text

‹ back to catalog

IRIDIUM 146

NORAD 43254 · 2018-030F

PAYLOAD ACTIVE UNKNOWN

§ Identity

Operator
Country
US
Launch date
2018-03-30
Launch site
AFWTR
Launch vehicle
Mass (kg)
RCS (m²)

Purposes: comms

External: N2YO · Heavens-Above · Gunter

§ Orbital elements

Epoch: 2026-09-15T22:36:59.092704Z

Period
100.40 min
Inclination
86.3907°
Eccentricity
0.0002172
Mean motion
14.34217326 rev/d
Perigee alt
776.1 km
Apogee alt
779.2 km
Semi-major
7,155.8 km
B*
4.4280e-5
RAAN
252.4533°
Arg perigee
86.8690°
Mean anomaly
273.2754°
Rev number
44,314

§ Raw data

IRIDIUM 1461 43254U 18030F   26258.94235061  .00000144  00000+0  44280-4 0  99932 43254  86.3907 252.4533 0002172  86.8690 273.2754 14.34217326443145

JSON: /api/v1/satellites/43254 · /tle

For live sub-satellite position, see the globe view (requires WebGL).

§ Visibility from observer

Set your observer location to see the next 7 days of passes ≥ 10°. The values pass through the URL so the page stays shareable.

No JS? Fill the form by hand. The geolocation button needs JavaScript.